Location: Grasslands National Park East Block
(49.0708°N, 106.5295°W)
Time: 18:48:12
(UTC-06:00)

Vanguard 1 - Pass Details

Date: 24 September 2019
Orbit: 653 x 3830 km, 34.3° (Epoch: 12 October)

Event Time Altitude Azimuth Distance (km) Brightness Sun altitude
Rises 09:10:59 0° 278° (W) 7,383 14.0 20.6°
Reaches altitude 10° 09:19:20 10° 261° (W) 5,736 13.6 21.8°
Maximum altitude 09:27:09 15° 232° (SW) 4,536 13.3 22.9°
Drops below altitude 10° 09:33:17 10° 202° (SSW) 4,289 13.5 23.8°
Sets 09:37:58 0° 180° (S) 4,707 14.0 24.4°
